DAL5505 KBUF-KSYR

Flight info

Callsign DAL5505
Flight time 0h 27m
Altitude 13000
Route GEE V84 SYR
Aircraft A339/H-SADE1E2E3GHIJ3J5M1P2RWXY/LB2D1

Departure

Time 2026-04-27 21:32
Airport Buffalo Niagara International Airport (KBUF)

Arrival

Time 2026-04-27 22:00
Airport Syracuse Hancock International Airport (KSYR)
Time Latitude Longitude Altitude Speed Heading
2026-04-27 21:17 42.93309 -78.73492 706 ft 0 kts 95°
2026-04-27 21:25 42.93311 -78.73511 707 ft 2 kts 95°
2026-04-27 21:26 42.93312 -78.73531 707 ft 2 kts 95°
2026-04-27 21:26 42.93314 -78.73552 707 ft 2 kts 99°
2026-04-27 21:26 42.93318 -78.73571 707 ft 2 kts 120°
2026-04-27 21:26 42.93327 -78.73588 707 ft 2 kts 136°
2026-04-27 21:27 42.93339 -78.73601 706 ft 2 kts 152°
2026-04-27 21:27 42.93353 -78.73608 706 ft 2 kts 168°
2026-04-27 21:27 42.93367 -78.73610 706 ft 2 kts 185°
2026-04-27 21:27 42.93382 -78.73606 706 ft 2 kts 200°
2026-04-27 21:28 42.93395 -78.73597 707 ft 2 kts 217°
2026-04-27 21:28 42.93401 -78.73590 707 ft 1 kts 225°
2026-04-27 21:28 42.93402 -78.73589 707 ft 0 kts 225°
2026-04-27 21:29 42.93393 -78.73601 706 ft 7 kts 224°
2026-04-27 21:29 42.93339 -78.73667 704 ft 13 kts 221°
2026-04-27 21:29 42.93268 -78.73760 704 ft 15 kts 224°
2026-04-27 21:30 42.93174 -78.73885 697 ft 22 kts 223°
2026-04-27 21:30 42.93084 -78.74013 689 ft 4 kts 241°
2026-04-27 21:30 42.93080 -78.74046 688 ft 0 kts 273°
2026-04-27 21:31 42.93086 -78.74085 686 ft 10 kts 290°
2026-04-27 21:31 42.93116 -78.74140 684 ft 5 kts 329°
2026-04-27 21:31 42.93137 -78.74140 686 ft 0 kts 30°
2026-04-27 21:32 42.93182 -78.74089 693 ft 35 kts 44°
2026-04-27 21:32 42.93577 -78.73573 709 ft 118 kts 43°
2026-04-27 21:32 42.94339 -78.72588 776 ft 177 kts 49°
2026-04-27 21:32 42.95248 -78.71400 1458 ft 185 kts 48°
2026-04-27 21:33 42.96151 -78.70239 2419 ft 179 kts 48°
2026-04-27 21:33 42.97067 -78.69044 3170 ft 191 kts 48°
2026-04-27 21:33 42.98053 -78.67751 3823 ft 207 kts 48°
2026-04-27 21:33 42.99130 -78.66338 4464 ft 225 kts 47°
2026-04-27 21:34 43.00292 -78.64814 5053 ft 241 kts 47°
2026-04-27 21:34 43.01552 -78.63165 5545 ft 259 kts 46°
2026-04-27 21:34 43.02888 -78.61416 6041 ft 276 kts 46°
2026-04-27 21:34 43.04288 -78.59587 6752 ft 284 kts 45°
2026-04-27 21:35 43.05707 -78.57738 7594 ft 286 kts 45°
2026-04-27 21:35 43.07151 -78.55855 8400 ft 289 kts 44°
2026-04-27 21:35 43.08578 -78.53939 9167 ft 293 kts 50°
2026-04-27 21:35 43.09463 -78.51459 9928 ft 293 kts 82°
2026-04-27 21:36 43.09271 -78.48740 10619 ft 297 kts 111°
2026-04-27 21:36 43.08370 -78.46137 11063 ft 312 kts 117°
2026-04-27 21:36 43.07355 -78.43430 11438 ft 330 kts 117°
2026-04-27 21:36 43.06300 -78.40532 11789 ft 348 kts 116°
2026-04-27 21:37 43.05219 -78.37467 12112 ft 367 kts 116°
2026-04-27 21:37 43.04103 -78.34229 12542 ft 381 kts 116°
2026-04-27 21:37 43.02993 -78.30966 12936 ft 384 kts 115°
2026-04-27 21:37 43.01875 -78.27663 13029 ft 385 kts 115°
2026-04-27 21:38 43.00750 -78.24327 13030 ft 384 kts 115°
2026-04-27 21:38 42.99628 -78.20995 13034 ft 384 kts 115°
2026-04-27 21:38 42.98510 -78.17678 13039 ft 384 kts 115°
2026-04-27 21:38 42.97389 -78.14359 13042 ft 384 kts 115°
2026-04-27 21:39 42.96266 -78.11037 13045 ft 384 kts 115°
2026-04-27 21:39 42.95158 -78.07763 13046 ft 384 kts 115°
2026-04-27 21:39 42.94031 -78.04433 13047 ft 384 kts 115°
2026-04-27 21:39 42.92905 -78.01111 13047 ft 383 kts 115°
2026-04-27 21:40 42.91799 -77.97852 13043 ft 370 kts 115°
2026-04-27 21:40 42.90733 -77.94714 13046 ft 367 kts 115°
2026-04-27 21:40 42.89659 -77.91558 13047 ft 367 kts 116°
2026-04-27 21:40 42.88586 -77.88406 13047 ft 367 kts 115°
2026-04-27 21:41 42.87512 -77.85259 13048 ft 367 kts 116°
2026-04-27 21:41 42.86441 -77.82124 13048 ft 367 kts 115°
2026-04-27 21:41 42.85363 -77.78965 13048 ft 367 kts 115°
2026-04-27 21:41 42.84318 -77.75782 13046 ft 367 kts 111°
2026-04-27 21:42 42.83609 -77.72444 13047 ft 367 kts 101°
2026-04-27 21:42 42.83313 -77.69002 13052 ft 366 kts 93°
2026-04-27 21:42 42.83236 -77.65552 13055 ft 366 kts 91°
2026-04-27 21:42 42.83197 -77.62077 13057 ft 366 kts 91°
2026-04-27 21:43 42.83157 -77.58565 13058 ft 366 kts 91°
2026-04-27 21:43 42.83112 -77.55130 13059 ft 366 kts 91°
2026-04-27 21:43 42.83060 -77.51638 13059 ft 366 kts 91°
2026-04-27 21:43 42.83003 -77.48182 13059 ft 366 kts 91°
2026-04-27 21:44 42.82944 -77.44715 13060 ft 366 kts 91°
2026-04-27 21:44 42.82881 -77.41232 13060 ft 366 kts 91°
2026-04-27 21:44 42.82816 -77.37773 13060 ft 366 kts 91°
2026-04-27 21:44 42.82751 -77.34296 13059 ft 366 kts 92°
2026-04-27 21:45 42.82687 -77.30838 13060 ft 366 kts 92°
2026-04-27 21:45 42.82619 -77.27372 13060 ft 366 kts 92°
2026-04-27 21:45 42.82552 -77.23950 13048 ft 362 kts 92°
2026-04-27 21:45 42.82482 -77.20544 12785 ft 355 kts 92°
2026-04-27 21:46 42.82417 -77.17182 12275 ft 354 kts 92°
2026-04-27 21:46 42.82353 -77.13935 11725 ft 339 kts 92°
2026-04-27 21:46 42.82287 -77.10776 11251 ft 324 kts 92°
2026-04-27 21:46 42.82224 -77.07827 11087 ft 307 kts 92°
2026-04-27 21:47 42.82161 -77.04916 11085 ft 307 kts 92°
2026-04-27 21:47 42.82098 -77.02016 11077 ft 307 kts 92°
2026-04-27 21:47 42.82187 -76.99108 11067 ft 308 kts 79°
2026-04-27 21:47 42.82891 -76.96389 11066 ft 302 kts 62°
2026-04-27 21:48 42.83935 -76.93919 11071 ft 297 kts 59°
2026-04-27 21:48 42.85030 -76.91493 11071 ft 297 kts 58°
2026-04-27 21:48 42.86105 -76.89118 11070 ft 297 kts 59°
2026-04-27 21:48 42.87180 -76.86719 11070 ft 297 kts 59°
2026-04-27 21:49 42.88259 -76.84293 11070 ft 297 kts 59°
2026-04-27 21:49 42.89315 -76.81907 10761 ft 292 kts 59°
2026-04-27 21:49 42.90342 -76.79582 10225 ft 287 kts 59°
2026-04-27 21:49 42.91354 -76.77281 9800 ft 277 kts 59°
2026-04-27 21:50 42.92323 -76.75081 9362 ft 269 kts 60°
2026-04-27 21:50 42.93278 -76.72900 8788 ft 266 kts 60°
2026-04-27 21:50 42.94120 -76.70966 8280 ft 249 kts 61°
2026-04-27 21:50 42.94999 -76.68930 7666 ft 252 kts 60°
2026-04-27 21:51 42.95895 -76.66883 7045 ft 254 kts 60°
2026-04-27 21:51 42.96787 -76.64838 6470 ft 239 kts 62°
2026-04-27 21:51 42.97617 -76.62899 6099 ft 233 kts 61°
2026-04-27 21:51 42.98433 -76.61050 5886 ft 221 kts 61°
2026-04-27 21:52 42.99216 -76.59278 5584 ft 215 kts 61°
2026-04-27 21:52 42.99977 -76.57542 5281 ft 212 kts 62°
2026-04-27 21:52 43.00724 -76.55833 4993 ft 213 kts 62°
2026-04-27 21:52 43.01488 -76.54078 4715 ft 215 kts 62°
2026-04-27 21:53 43.02798 -76.51061 4210 ft 219 kts 62°
2026-04-27 21:53 43.03574 -76.49283 3915 ft 221 kts 62°
2026-04-27 21:53 43.04380 -76.47469 3619 ft 224 kts 59°
2026-04-27 21:53 43.05273 -76.45717 3288 ft 222 kts 55°
2026-04-27 21:54 43.06211 -76.44088 3041 ft 213 kts 54°
2026-04-27 21:54 43.07100 -76.42569 3020 ft 200 kts 54°
2026-04-27 21:54 43.07948 -76.41119 3027 ft 190 kts 54°
2026-04-27 21:54 43.08769 -76.39710 3018 ft 188 kts 54°
2026-04-27 21:55 43.09536 -76.38287 3014 ft 186 kts 66°
2026-04-27 21:55 43.09927 -76.36618 3017 ft 182 kts 82°
2026-04-27 21:55 43.10081 -76.34898 3022 ft 182 kts 88°
2026-04-27 21:55 43.10169 -76.33231 2982 ft 166 kts 90°
2026-04-27 21:56 43.10243 -76.31701 2835 ft 160 kts 89°
2026-04-27 21:56 43.10340 -76.28684 2638 ft 158 kts 93°
2026-04-27 21:56 43.10385 -76.27187 2549 ft 158 kts 91°
2026-04-27 21:57 43.10430 -76.25669 2309 ft 156 kts 90°
2026-04-27 21:57 43.10482 -76.24229 2083 ft 147 kts 91°
2026-04-27 21:57 43.10513 -76.22856 1857 ft 146 kts 92°
2026-04-27 21:57 43.10545 -76.21458 1689 ft 146 kts 92°
2026-04-27 21:58 43.10589 -76.20069 1475 ft 146 kts 91°
2026-04-27 21:58 43.10634 -76.18675 1257 ft 146 kts 91°
2026-04-27 21:58 43.10677 -76.17303 1062 ft 145 kts 91°
2026-04-27 21:58 43.10714 -76.15925 882 ft 145 kts 90°
2026-04-27 21:59 43.10757 -76.14547 690 ft 144 kts 90°
2026-04-27 21:59 43.10806 -76.13161 518 ft 144 kts 91°
2026-04-27 21:59 43.10850 -76.11822 436 ft 134 kts 91°
2026-04-27 21:59 43.10878 -76.10899 435 ft 53 kts 90°
2026-04-27 22:00 43.10887 -76.10606 434 ft 9 kts 68°
2026-04-27 22:00 43.10926 -76.10574 434 ft 8 kts 11°
2026-04-27 22:00 43.10970 -76.10575 435 ft 0 kts 351°
2026-04-27 22:01 43.10972 -76.10576 435 ft 1 kts 350°
2026-04-27 22:01 43.10999 -76.10603 434 ft 8 kts 300°
2026-04-27 22:01 43.11005 -76.10716 434 ft 15 kts 267°
2026-04-27 22:02 43.10999 -76.10892 435 ft 20 kts 267°
2026-04-27 22:02 43.10990 -76.11092 434 ft 20 kts 265°
2026-04-27 22:02 43.10986 -76.11287 434 ft 20 kts 268°
2026-04-27 22:02 43.10980 -76.11483 434 ft 20 kts 268°
2026-04-27 22:03 43.10973 -76.11678 435 ft 20 kts 267°
2026-04-27 22:03 43.10967 -76.11874 435 ft 20 kts 267°
2026-04-27 22:03 43.10959 -76.12069 435 ft 18 kts 266°
2026-04-27 22:03 43.10980 -76.12164 434 ft 7 kts 331°
2026-04-27 22:04 43.11037 -76.12188 434 ft 8 kts 321°
2026-04-27 22:04 43.11054 -76.12270 435 ft 10 kts 268°
2026-04-27 22:04 43.11051 -76.12353 435 ft 1 kts 275°
2026-04-27 22:04 43.11054 -76.12357 435 ft 0 kts 318°
2026-04-27 22:05 43.11062 -76.12357 434 ft 1 kts 359°
2026-04-27 22:05 43.11088 -76.12358 434 ft 5 kts 358°
2026-04-27 22:05 43.11102 -76.12359 434 ft 1 kts 358°